This demonstration page uses our WeatherBlox Daily Observations layout. Learn more.

36.17497, -115.13722

Hourly Observations for June 21, 2020

Temp ( °F °C ) Dew Point ( °F °C ) Humidity (%) Winds ( mph kmh ) Pressure ( in mb ) Visibility ( mi km ) Precip ( " mm )
12:53 am 00:53 Clear 91 32.8 27 -2.8 10 10 W 6 9 29.78 1008 10 16.0934 0 0
1:53 am 01:53 Clear 87 30.6 32 0 14 14 Calm 29.79 1009 10 16.0934 0 0
2:53 am 02:53 Clear 84 28.9 33 0.6 16 16 WNW 6 9 29.78 1009 10 16.0934 0 0
3:53 am 03:53 Clear 81 27.2 32 0 17 17 WNW 5 7 29.79 1009 10 16.0934 0 0
4:53 am 04:53 Clear 80 26.7 31 -0.6 17 17 NNW 8 13 29.8 1009 10 16.0934 0 0
5:53 am 05:53 Sunny 84 28.9 30 -1.1 14 14 NNW 8 13 29.81 1010 10 16.0934 0 0
6:53 am 06:53 Sunny 83 28.3 34 1.1 17 17 NW 6 9 29.84 1010 10 16.0934 0 0
7:53 am 07:53 Sunny 86 30 35 1.7 16 16 Calm 29.85 1011 10 16.0934 0 0
8:53 am 08:53 Sunny 91 32.8 37 2.8 15 15 Calm 29.85 1011 10 16.0934 0 0
9:53 am 09:53 Sunny 95 35 37 2.8 13 13 Calm 29.84 1011 10 16.0934 0 0
10:53 am 10:53 Sunny 98 36.7 35 1.7 11 11 ENE 7 11 29.84 1011 10 16.0934 0 0
11:53 am 11:53 Sunny 101 38.3 36 2.2 10 10 SE 9 15 29.83 1010 10 16.0934 0 0
12:53 pm 12:53 Sunny 103 39.4 31 -0.6 8 8 SE 12 19 29.8 1009 10 16.0934 0 0
1:53 pm 13:53 Sunny 105 40.6 30 -1.1 7 7 SE 13 20 29.78 1008 10 16.0934 0 0
2:53 pm 14:53 Sunny 105 40.6 31 -0.6 7 7 S 6 9 29.76 1008 10 16.0934 0 0
3:53 pm 15:53 Sunny 106 41.1 30 -1.1 7 7 E 9 15 29.73 1007 10 16.0934 0 0
4:53 pm 16:53 Sunny 106 41.1 28 -2.2 6 6 SE 12 19 29.71 1006 10 16.0934 0 0
5:53 pm 17:53 Sunny 106 41.1 29 -1.7 7 7 SE 18 30 29.69 1005 10 16.0934 0 0
6:53 pm 18:53 Sunny 105 40.6 29 -1.7 7 7 SE 13 20 29.69 1005 10 16.0934 0 0
7:53 pm 19:53 Sunny 103 39.4 28 -2.2 7 7 SW 8 13 29.7 1006 10 16.0934 0 0
8:53 pm 20:53 Clear 100 37.8 29 -1.7 8 8 SSW 8 13 29.72 1007 10 16.0934 0 0
9:53 pm 21:53 Clear 97 36.1 30 -1.1 9 9 S 7 11 29.75 1008 10 16.0934 0 0
10:53 pm 22:53 Clear 95 35 30 -1.1 10 10 S 7 11 29.75 1008 10 16.0934 0 0
11:53 pm 23:53 Clear 91 32.8 31 -0.6 12 12 W 5 7 29.76 1008 10 16.0934 0 0

Powered by AerisWeather